DW3528 Weather Reports


time (UTC)temp
C
wind
direction
speed
KPH
gust
KPH
rain 1hr
cm
rain 24hr
cm
rain mn
cm
humidity
%
barometer
mb
20260503185844 16 46 0.0 0.0 0.00 0.00 0.00 92 1015.8
20260503185831 16 46 0.0 0.0 0.00 0.00 0.00 92 1015.8
20260503184832 16 46 0.0 0.0 0.00 0.00 0.00 92 1015.8
20260503184333 16 46 0.0 0.0 0.00 0.00 0.00 92 1015.8
20260503183833 16 46 0.0 0.0 0.00 0.00 0.00 92 1015.8
20260503183331 16 46 0.0 0.0 0.00 0.00 0.00 92 1015.8
20260503182831 16 46 0.0 0.0 0.00 0.00 0.00 92 1015.8
20260503182333 16 46 0.0 0.0 0.00 0.00 0.00 92 1015.8
20260503181832 16 46 0.0 0.0 0.00 0.00 0.00 92 1015.8
20260503181819 16 46 0.0 0.0 0.00 0.00 0.00 92 1015.7
20260503180831 16 46 0.0 0.0 0.00 0.00 0.00 92 1015.8
20260503180333 16 46 0.0 0.0 0.00 0.00 0.00 91 1015.8
20260503175830 16 46 0.0 0.0 0.00 0.00 0.00 91 1015.8
20260503175329 16 46 0.0 0.0 0.00 0.00 0.00 91 1015.7
20260503174826 16 46 0.0 0.0 0.00 0.00 0.00 91 1015.7
20260503174322 16 46 0.0 0.0 0.00 0.00 0.00 91 1015.7
20260503173823 15 46 0.0 0.0 0.00 0.00 0.00 91 1015.7
20260503173321 15 46 0.0 0.0 0.00 0.00 0.00 91 1015.7
20260503172821 15 46 0.0 0.0 0.00 0.00 0.00 91 1015.7
20260503172320 15 46 0.0 0.0 0.00 0.00 0.00 91 1015.8
20260503171821 15 46 0.0 0.0 0.00 0.00 0.00 91 1015.8
20260503171320 15 46 0.0 0.0 0.00 0.00 0.00 91 1015.9
20260503170820 15 46 0.0 0.0 0.00 0.00 0.00 91 1015.9
20260503170317 15 46 0.0 0.0 0.00 0.00 0.00 91 1016.0
20260503150801 16 46 0.0 0.0 0.00 0.00 0.00 89 1016.9
20260503150300 16 46 0.0 0.0 0.00 0.00 0.00 89 1016.9
20260503140303 16 46 0.0 0.0 0.00 0.00 0.00 87 1017.5
20260503131246 16 46 0.0 0.0 0.00 0.00 0.00 86 1018.0
20260503130746 16 46 0.0 0.0 0.00 0.00 0.00 86 1018.0
20260503130517 16 46 0.0 0.0 0.00 0.00 0.00 86 1018.0
20260503110718 18 46 0.0 0.0 0.00 0.00 0.00 83 1018.4
20260503110218 18 46 0.0 0.0 0.00 0.00 0.00 83 1018.4
20260503100202 20 46 0.0 0.0 0.00 0.00 0.00 80 1018.1
20260503090153 21 46 0.0 0.0 0.00 0.00 0.00 77 1018.0
20260503081417 22 46 0.0 0.0 0.00 0.00 0.00 74 1017.8
20260503080651 22 46 0.0 0.0 0.00 0.00 0.00 73 1017.8
20260503080419 22 46 0.0 0.0 0.00 0.00 0.00 73 1017.8
20260503072651 23 46 0.0 0.0 0.00 0.00 0.00 71 1017.5
20260503072148 23 46 0.0 0.0 0.00 0.00 0.00 70 1017.5
20260503071648 23 46 0.0 0.0 0.00 0.00 0.00 69 1017.5
20260503071148 23 46 0.0 0.0 0.00 0.00 0.00 69 1017.4
20260503070647 24 46 0.0 0.0 0.00 0.00 0.00 68 1017.4
20260503070149 24 46 0.0 0.0 0.00 0.00 0.00 67 1017.4
20260503060142 26 35 4.8 22.5 0.00 0.00 0.00 54 1017.5
20260503054903 26 35 1.6 24.1 0.00 0.00 0.00 53 1017.6
20260503054141 26 35 0.0 0.0 0.00 0.00 0.00 52 1017.6
20260503053907 26 35 0.0 0.0 0.00 0.00 0.00 53 1017.6
20260503053143 26 35 1.6 11.3 0.00 0.00 0.00 54 1017.6
20260503052644 26 35 4.8 20.9 0.00 0.00 0.00 54 1017.6
20260503052141 26 35 4.8 20.9 0.00 0.00 0.00 53 1017.7
20260503051643 26 35 4.8 17.7 0.00 0.00 0.00 54 1017.7
20260503051143 26 35 6.4 24.1 0.00 0.00 0.00 54 1017.9
20260503050903 25 35 6.4 24.1 0.00 0.00 0.00 55 1017.8
20260503050136 25 37 0.0 0.0 0.00 0.00 0.00 56 1017.8
20260503045628 25 37 0.0 1.6 0.00 0.00 0.00 56 1017.9
20260503045122 25 37 0.0 1.6 0.00 0.00 0.00 56 1018.0
20260503044836 25 37 3.2 20.9 0.00 0.00 0.00 56 1018.0
20260503044110 25 37 3.2 24.1 0.00 0.00 0.00 56 1018.1
20260503043606 25 37 0.0 24.1 0.00 0.00 0.00 57 1018.2
20260503043553 25 36 0.0 0.0 0.00 0.00 0.00 58 1018.2
20260503042553 25 36 0.0 0.0 0.00 0.00 0.00 58 1018.2
20260503042319 25 36 0.0 0.0 0.00 0.00 0.00 59 1018.2
20260503041553 25 36 0.0 0.0 0.00 0.00 0.00 59 1018.3
20260503041320 25 36 0.0 0.0 0.00 0.00 0.00 59 1018.4
20260503040813 25 36 0.0 17.7 0.00 0.00 0.00 59 1018.4
20260503040051 25 36 1.6 17.7 0.00 0.00 0.00 59 1018.4
20260503035551 25 36 0.0 16.1 0.00 0.00 0.00 59 1018.5
20260503035052 25 36 1.6 19.3 0.00 0.00 0.00 59 1018.6
20260503034549 25 36 4.8 19.3 0.00 0.00 0.00 58 1018.6
20260503034051 25 36 4.8 25.7 0.00 0.00 0.00 58 1018.7
20260503033551 25 36 6.4 25.7 0.00 0.00 0.00 59 1018.7
20260503033051 25 38 4.8 20.9 0.00 0.00 0.00 59 1018.8
20260503032550 25 38 4.8 27.4 0.00 0.00 0.00 58 1018.9
20260503032049 25 38 1.6 27.4 0.00 0.00 0.00 59 1018.9
20260503031551 25 39 1.6 20.9 0.00 0.00 0.00 60 1019.1
20260503031050 25 39 3.2 25.7 0.00 0.00 0.00 60 1019.2
20260503030544 25 39 3.2 25.7 0.00 0.00 0.00 59 1019.2
20260503030531 25 38 1.6 20.9 0.00 0.00 0.00 59 1019.4
20260503025539 25 38 3.2 27.4 0.00 0.00 0.00 59 1019.4
20260503025038 25 38 11.3 27.4 0.00 0.05 0.00 59 1019.6
20260503024538 25 40 9.7 30.6 0.00 0.08 0.00 59 1019.6
20260503024033 25 41 6.4 30.6 0.00 0.08 0.00 60 1019.7
20260503023531 25 39 8.0 30.6 0.00 0.08 0.00 60 1019.9
20260503023302 25 38 9.7 30.6 0.00 0.08 0.00 60 1019.9
20260503022759 25 48 9.7 30.6 0.00 0.08 0.00 60 1020.0
20260503022031 25 50 4.8 30.6 0.00 0.08 0.00 60 1020.0
20260503021759 25 54 3.2 25.7 0.00 0.08 0.00 60 1020.2
20260503021031 25 54 1.6 20.9 0.00 0.08 0.00 61 1020.4
20260503020748 24 54 3.2 30.6 0.00 0.08 0.00 61 1020.4
20260503020029 24 54 1.6 30.6 0.00 0.08 0.00 60 1020.6
20260503015529 24 52 0.0 3.2 0.00 0.08 0.00 62 1020.8
20260503015029 24 52 0.0 3.2 0.00 0.08 0.00 62 1020.9
20260503014529 24 52 0.0 3.2 0.00 0.08 0.00 62 1021.0
20260503014030 24 52 1.6 22.5 0.00 0.08 0.00 63 1021.1
20260503013529 23 52 6.4 27.4 0.00 0.08 0.00 63 1021.2
20260503013248 23 52 6.4 27.4 0.00 0.08 0.00 64 1021.2
20260503012518 23 56 6.4 27.4 0.00 0.08 0.00 64 1021.3
20260503012011 23 56 8.0 27.4 0.00 0.08 0.00 64 1021.4
20260503011504 23 59 3.2 25.7 0.00 0.08 0.00 65 1021.6
20260503010958 23 59 3.2 27.4 0.00 0.08 0.00 66 1021.7
20260503010452 23 58 3.2 27.4 0.00 0.08 0.00 66 1021.7
20260503005949 23 59 0.0 0.0 0.00 0.08 0.00 69 1021.7
20260503005441 22 59 0.0 3.2 0.00 0.08 0.00 71 1021.9
20260503004935 22 58 0.0 3.2 0.00 0.08 0.00 72 1022.0
20260503004910 22 59 0.0 3.2 0.00 0.08 0.00 73 1022.2
20260503003923 22 59 0.0 6.4 0.00 0.08 0.00 73 1022.1
20260503003419 22 58 0.0 12.9 0.00 0.08 0.00 74 1022.2
20260503002910 22 59 0.0 12.9 0.00 0.08 0.00 75 1022.3
20260503002404 21 58 0.0 0.0 0.00 0.08 0.00 77 1022.4
20260503001859 21 59 0.0 0.0 0.00 0.08 0.00 78 1022.3
20260503001353 21 59 0.0 0.0 0.00 0.08 0.00 80 1022.3
20260503000849 21 59 0.0 0.0 0.00 0.08 0.00 81 1022.4
20260503000348 21 58 0.0 0.0 0.00 0.08 0.00 83 1022.3
20260502235851 20 59 0.0 0.0 0.00 0.08 0.00 84 1022.3
20260502235350 20 59 0.0 0.0 0.00 0.08 0.00 87 1022.3
20260502234847 20 59 0.0 0.0 0.00 0.08 0.00 88 1022.3
20260502234609 20 59 0.0 0.0 0.00 0.08 0.00 90 1022.4
20260502233845 19 59 0.0 0.0 0.00 0.08 0.00 90 1022.4
20260502233343 19 59 0.0 0.0 0.00 0.08 0.00 92 1022.4
20260502233103 19 59 0.0 0.0 0.00 0.08 0.00 92 1022.4
20260502232342 18 59 0.0 0.0 0.00 0.08 0.00 93 1022.5
20260502231844 18 58 0.0 0.0 0.00 0.08 0.00 93 1022.6
20260502231342 18 59 0.0 0.0 0.00 0.08 0.00 93 1022.7
20260502230844 18 59 0.0 0.0 0.00 0.08 0.00 93 1022.7
20260502230833 18 59 0.0 0.0 0.00 0.08 0.00 93 1022.7
20260502225842 17 59 0.0 0.0 0.00 0.08 0.00 93 1022.7
20260502225612 17 58 0.0 0.0 0.00 0.08 0.00 93 1022.8
20260502224841 17 58 0.0 0.0 0.00 0.08 0.00 93 1022.9
20260502224343 17 59 0.0 0.0 0.00 0.08 0.00 93 1023.0
20260502223839 17 59 0.0 0.0 0.00 0.08 0.00 93 1023.0
20260502223331 16 59 0.0 0.0 0.00 0.08 0.00 93 1022.9
20260502222827 16 59 0.0 0.0 0.00 0.08 0.00 93 1023.0
20260502222318 16 58 0.0 0.0 0.00 0.08 0.00 93 1023.0
20260502222259 16 59 0.0 0.0 0.00 0.08 0.00 93 1022.9
20260502221308 16 59 0.0 0.0 0.00 0.08 0.00 92 1022.8
20260502220801 15 58 0.0 0.0 0.00 0.08 0.00 93 1022.8
20260502220254 15 58 0.0 0.0 0.00 0.08 0.00 92 1022.9
20260502215749 15 59 0.0 0.0 0.00 0.08 0.00 93 1022.8
20260502215243 15 59 0.0 0.0 0.00 0.08 0.00 92 1022.7
20260502214742 15 58 0.0 0.0 0.00 0.08 0.00 92 1022.6
20260502214231 15 58 0.0 0.0 0.00 0.08 0.00 92 1022.5
20260502213947 15 59 0.0 0.0 0.00 0.08 0.00 92 1022.5
20260502213218 15 59 0.0 0.0 0.00 0.08 0.00 92 1022.5
20260502212712 15 59 0.0 0.0 0.00 0.08 0.00 92 1022.3
20260502212209 14 58 0.0 0.0 0.00 0.08 0.00 92 1022.2
20260502211933 14 58 0.0 0.0 0.00 0.08 0.00 92 1022.1
20260502211155 14 59 0.0 0.0 0.00 0.08 0.00 92 1022.1
20260502210649 14 58 0.0 0.0 0.00 0.08 0.00 92 1022.2
20260502210142 14 59 0.0 0.0 0.00 0.08 0.00 92 1022.2
20260502205638 14 58 0.0 0.0 0.00 0.08 0.00 92 1022.2
20260502205131 14 58 0.0 0.0 0.00 0.08 0.00 91 1022.2
20260502204843 14 59 0.0 0.0 0.00 0.08 0.00 91 1022.2
20260502204351 14 59 0.0 0.0 0.00 0.08 0.00 91 1022.1
20260502203613 14 58 0.0 0.0 0.00 0.08 0.00 91 1022.1
20260502203109 14 59 0.0 0.0 0.00 0.08 0.00 91 1022.0
20260502202601 14 59 0.0 0.0 0.00 0.08 0.00 91 1022.0
20260502202055 15 58 0.0 0.0 0.00 0.08 0.00 91 1022.1
20260502201549 15 59 0.0 0.0 0.00 0.08 0.00 91 1022.1
20260502201042 15 59 0.0 0.0 0.00 0.08 0.00 91 1022.2
20260502200802 15 58 0.0 0.0 0.00 0.08 0.00 91 1022.1
20260502200031 15 59 0.0 0.0 0.00 0.08 0.00 91 1022.2
20260502195525 15 58 0.0 0.0 0.00 0.08 0.00 91 1022.3
20260502195019 15 58 0.0 0.0 0.00 0.08 0.00 91 1022.2
20260502194512 15 58 0.0 0.0 0.00 0.08 0.00 91 1022.1
20260502194009 15 58 0.0 0.0 0.00 0.08 0.00 91 1022.0
20260502193501 15 58 0.0 0.0 0.00 0.08 0.00 91 1022.0
20260502192955 15 59 0.0 0.0 0.00 0.08 0.00 91 1022.0
20260502192449 15 59 0.0 0.0 0.00 0.08 0.00 91 1022.0
20260502191943 15 58 0.0 0.0 0.00 0.08 0.00 91 1022.0
20260502191701 15 59 0.0 0.0 0.00 0.08 0.00 91 1021.9
20260502190930 15 59 0.0 0.0 0.00 0.08 0.00 91 1021.8
20260502190425 15 58 0.0 0.0 0.00 0.08 0.00 91 1022.0